Time,TemperatureF,DewpointF,PressureIn,WindDirection,WindDirectionDegrees,WindSpeedMPH,WindSpeedGustMPH,Humidity,HourlyPrecipIn,Conditions,Clouds,dailyrainin,SoftwareType,DateUTC
2013-02-16 00:00:00,28.7,16.6,29.82,NNE,12,3.0,24.0,60,0.00,,,0.00,Wunderground v.1.15,2013-02-16 06:00:00,
2013-02-16 00:10:00,28.7,16.6,29.81,NNW,348,3.0,24.0,60,0.00,,,0.00,Wunderground v.1.15,2013-02-16 06:10:00,
2013-02-16 00:55:00,28.2,17.2,29.81,NW,316,1.0,24.0,63,0.00,,,0.00,Wunderground v.1.15,2013-02-16 06:55:00,
2013-02-16 01:05:00,27.7,17.1,29.81,NW,316,0.0,24.0,64,0.00,,,0.00,Wunderground v.1.15,2013-02-16 07:05:00,
2013-02-16 01:15:00,27.6,18.4,29.81,West,264,0.0,24.0,68,0.00,,,0.00,Wunderground v.1.15,2013-02-16 07:15:00,
2013-02-16 01:25:00,26.7,17.2,29.81,West,264,0.0,24.0,67,0.00,,,0.00,Wunderground v.1.15,2013-02-16 07:25:00,
2013-02-16 01:35:00,25.8,17.4,29.81,West,264,0.0,24.0,70,0.00,,,0.00,Wunderground v.1.15,2013-02-16 07:35:00,
2013-02-16 01:45:00,25.3,16.9,29.80,WSW,250,0.0,24.0,70,0.00,,,0.00,Wunderground v.1.15,2013-02-16 07:45:00,
2013-02-16 01:55:00,26.1,16.6,29.80,West,269,0.0,24.0,67,0.00,,,0.00,Wunderground v.1.15,2013-02-16 07:55:00,
2013-02-16 02:05:00,26.6,17.5,29.80,WSW,240,1.0,24.0,68,0.00,,,0.00,Wunderground v.1.15,2013-02-16 08:05:00,
2013-02-16 02:15:00,25.2,17.8,29.80,SW,236,0.0,24.0,73,0.00,,,0.00,Wunderground v.1.15,2013-02-16 08:15:00,
2013-02-16 02:25:00,24.5,17.1,29.80,WSW,240,0.0,24.0,73,0.00,,,0.00,Wunderground v.1.15,2013-02-16 08:25:00,
2013-02-16 02:35:00,24.8,16.7,29.80,WSW,256,0.0,24.0,71,0.00,,,0.00,Wunderground v.1.15,2013-02-16 08:35:00,
2013-02-16 02:40:00,24.7,17.3,29.80,WSW,250,0.0,24.0,73,0.00,,,0.00,Wunderground v.1.15,2013-02-16 08:40:00,
2013-02-16 02:50:00,24.6,16.9,29.80,West,259,0.0,24.0,72,0.00,,,0.00,Wunderground v.1.15,2013-02-16 08:50:00,
2013-02-16 03:00:00,24.6,17.2,29.80,SW,234,1.0,24.0,73,0.00,,,0.00,Wunderground v.1.15,2013-02-16 09:00:00,
2013-02-16 03:05:00,24.4,17.3,29.79,WSW,243,1.0,24.0,74,0.00,,,0.00,Wunderground v.1.15,2013-02-16 09:05:00,
2013-02-16 03:10:00,24.4,17.3,29.79,WSW,248,0.0,24.0,74,0.00,,,0.00,Wunderground v.1.15,2013-02-16 09:10:00,
2013-02-16 03:20:00,24.1,16.7,29.79,SW,233,0.0,24.0,73,0.00,,,0.00,Wunderground v.1.15,2013-02-16 09:20:00,
2013-02-16 03:30:00,23.7,16.9,29.80,WSW,248,0.0,24.0,75,0.00,,,0.00,Wunderground v.1.15,2013-02-16 09:30:00,
2013-02-16 03:40:00,23.9,16.8,29.80,SW,226,1.0,24.0,74,0.00,,,0.00,Wunderground v.1.15,2013-02-16 09:40:00,
2013-02-16 03:50:00,24.0,16.6,29.79,SW,225,1.0,24.0,73,0.00,,,0.00,Wunderground v.1.15,2013-02-16 09:50:00,
2013-02-16 04:00:00,24.2,16.5,29.80,West,269,1.0,24.0,72,0.00,,,0.00,Wunderground v.1.15,2013-02-16 10:00:00,
2013-02-16 04:10:00,24.0,16.6,29.80,WSW,242,0.0,24.0,73,0.00,,,0.00,Wunderground v.1.15,2013-02-16 10:10:00,
2013-02-16 04:20:00,23.7,16.3,29.80,WSW,243,0.0,24.0,73,0.00,,,0.00,Wunderground v.1.15,2013-02-16 10:20:00,
2013-02-16 04:30:00,23.9,16.2,29.80,West,273,2.0,24.0,72,0.00,,,0.00,Wunderground v.1.15,2013-02-16 10:30:00,
2013-02-16 04:40:00,24.7,17.0,29.81,West,276,4.0,4.0,72,0.00,,,0.00,Wunderground v.1.15,2013-02-16 10:40:00,
2013-02-16 04:50:00,24.8,17.1,29.81,WNW,284,4.0,4.0,72,0.00,,,0.00,Wunderground v.1.15,2013-02-16 10:50:00,
2013-02-16 05:00:00,24.9,17.5,29.81,West,271,3.0,3.0,73,0.00,,,0.00,Wunderground v.1.15,2013-02-16 11:00:00,
2013-02-16 05:10:00,25.4,17.3,29.81,WNW,289,4.0,24.0,71,0.00,,,0.00,Wunderground v.1.15,2013-02-16 11:10:00,
2013-02-16 05:15:00,25.6,17.5,29.81,NW,311,3.0,24.0,71,0.00,,,0.00,Wunderground v.1.15,2013-02-16 11:15:00,
2013-02-16 05:25:00,25.4,17.0,29.82,NW,305,4.0,24.0,70,0.00,,,0.00,Wunderground v.1.15,2013-02-16 11:25:00,
2013-02-16 05:35:00,25.0,16.9,29.82,NW,314,4.0,24.0,71,0.00,,,0.00,Wunderground v.1.15,2013-02-16 11:35:00,
2013-02-16 05:40:00,24.8,16.7,29.82,WNW,301,5.0,24.0,71,0.00,,,0.00,Wunderground v.1.15,2013-02-16 11:40:00,
2013-02-16 05:50:00,24.6,16.9,29.82,WNW,302,5.0,5.0,72,0.00,,,0.00,Wunderground v.1.15,2013-02-16 11:50:00,
2013-02-16 06:00:00,24.6,16.9,29.82,NW,316,5.0,5.0,72,0.00,,,0.00,Wunderground v.1.15,2013-02-16 12:00:00,
2013-02-16 06:05:00,24.5,16.8,29.82,NW,312,5.0,7.0,72,0.00,,,0.00,Wunderground v.1.15,2013-02-16 12:05:00,
2013-02-16 06:10:00,24.5,16.8,29.82,NW,316,6.0,24.0,72,0.00,,,0.00,Wunderground v.1.15,2013-02-16 12:10:00,
2013-02-16 06:20:00,24.4,16.3,29.82,WNW,294,5.0,24.0,71,0.00,,,0.00,Wunderground v.1.15,2013-02-16 12:20:00,
2013-02-16 06:30:00,24.3,16.6,29.82,NW,317,5.0,24.0,72,0.00,,,0.00,Wunderground v.1.15,2013-02-16 12:30:00,
2013-02-16 06:40:00,24.3,16.2,29.82,NNW,331,6.0,24.0,71,0.00,,,0.00,Wunderground v.1.15,2013-02-16 12:40:00,
2013-02-16 06:50:00,24.2,16.5,29.83,NW,316,6.0,24.0,72,0.00,,,0.00,Wunderground v.1.15,2013-02-16 12:50:00,
2013-02-16 07:00:00,24.1,16.4,29.83,NW,318,5.0,24.0,72,0.00,,,0.00,Wunderground v.1.15,2013-02-16 13:00:00,
2013-02-16 07:10:00,24.0,16.3,29.83,NNW,335,6.0,24.0,72,0.00,,,0.00,Wunderground v.1.15,2013-02-16 13:10:00,
2013-02-16 07:15:00,23.9,16.5,29.83,North,1,8.0,24.0,73,0.00,,,0.00,Wunderground v.1.15,2013-02-16 13:15:00,
2013-02-16 07:25:00,23.9,16.2,29.83,NW,316,6.0,24.0,72,0.00,,,0.00,Wunderground v.1.15,2013-02-16 13:25:00,
2013-02-16 07:30:00,23.8,16.1,29.84,North,356,7.0,24.0,72,0.00,,,0.00,Wunderground v.1.15,2013-02-16 13:30:00,
2013-02-16 07:40:00,23.7,15.3,29.84,WNW,303,8.0,24.0,70,0.00,,,0.00,Wunderground v.1.15,2013-02-16 13:40:00,
2013-02-16 07:50:00,23.6,15.2,29.85,WNW,300,9.0,24.0,70,0.00,,,0.00,Wunderground v.1.15,2013-02-16 13:50:00,
2013-02-16 07:55:00,23.5,14.8,29.85,NW,321,7.0,24.0,69,0.00,,,0.00,Wunderground v.1.15,2013-02-16 13:55:00,
2013-02-16 08:05:00,23.3,14.3,29.85,NW,309,7.0,10.0,68,0.00,,,0.00,Wunderground v.1.15,2013-02-16 14:05:00,
2013-02-16 08:10:00,23.6,14.6,29.85,NW,305,7.0,24.0,68,0.00,,,0.00,Wunderground v.1.15,2013-02-16 14:10:00,
2013-02-16 08:20:00,24.2,14.8,29.85,NNW,331,7.0,7.0,67,0.00,,,0.00,Wunderground v.1.15,2013-02-16 14:20:00,
2013-02-16 08:30:00,24.3,14.2,29.85,WNW,300,7.0,7.0,65,0.00,,,0.00,Wunderground v.1.15,2013-02-16 14:30:00,
2013-02-16 08:35:00,24.4,14.3,29.86,WNW,294,7.0,24.0,65,0.00,,,0.00,Wunderground v.1.15,2013-02-16 14:35:00,
2013-02-16 08:40:00,24.3,14.2,29.86,NW,310,7.0,7.0,65,0.00,,,0.00,Wunderground v.1.15,2013-02-16 14:40:00,
2013-02-16 08:50:00,24.6,14.1,29.85,NW,304,9.0,9.0,64,0.00,,,0.00,Wunderground v.1.15,2013-02-16 14:50:00,
2013-02-16 09:00:00,25.2,14.4,29.85,NW,305,9.0,24.0,63,0.00,,,0.00,Wunderground v.1.15,2013-02-16 15:00:00,
2013-02-16 09:10:00,25.4,13.4,29.85,West,281,8.0,8.0,60,0.00,,,0.00,Wunderground v.1.15,2013-02-16 15:10:00,
2013-02-16 09:20:00,25.6,14.0,29.85,NW,321,7.0,24.0,61,0.00,,,0.00,Wunderground v.1.15,2013-02-16 15:20:00,
2013-02-16 09:30:00,26.2,13.4,29.85,NNW,338,6.0,24.0,58,0.00,,,0.00,Wunderground v.1.15,2013-02-16 15:30:00,
2013-02-16 09:40:00,26.1,12.9,29.85,WNW,294,8.0,24.0,57,0.00,,,0.00,Wunderground v.1.15,2013-02-16 15:40:00,
2013-02-16 09:50:00,26.8,13.2,29.85,NNW,337,6.0,24.0,56,0.00,,,0.00,Wunderground v.1.15,2013-02-16 15:50:00,
2013-02-16 10:00:00,27.0,13.4,29.85,NW,326,6.0,24.0,56,0.00,,,0.00,Wunderground v.1.15,2013-02-16 16:00:00,
2013-02-16 10:10:00,27.2,13.6,29.85,West,263,8.0,24.0,56,0.00,,,0.00,Wunderground v.1.15,2013-02-16 16:10:00,
2013-02-16 10:20:00,27.4,13.7,29.85,NW,315,6.0,6.0,56,0.00,,,0.00,Wunderground v.1.15,2013-02-16 16:20:00,
2013-02-16 10:30:00,27.7,14.0,29.85,NW,322,8.0,8.0,56,0.00,,,0.00,Wunderground v.1.15,2013-02-16 16:30:00,
2013-02-16 10:40:00,28.0,13.9,29.85,WNW,294,8.0,8.0,55,0.00,,,0.00,Wunderground v.1.15,2013-02-16 16:40:00,
2013-02-16 10:45:00,28.4,14.3,29.85,NNW,347,7.0,24.0,55,0.00,,,0.00,Wunderground v.1.15,2013-02-16 16:45:00,
2013-02-16 10:55:00,28.4,13.0,29.85,NW,313,8.0,24.0,52,0.00,,,0.00,Wunderground v.1.15,2013-02-16 16:55:00,
2013-02-16 11:05:00,28.8,12.9,29.85,WNW,301,8.0,24.0,51,0.00,,,0.00,Wunderground v.1.15,2013-02-16 17:05:00,
2013-02-16 11:15:00,29.3,13.8,29.85,NW,314,5.0,24.0,52,0.00,,,0.00,Wunderground v.1.15,2013-02-16 17:15:00,
2013-02-16 11:20:00,29.3,13.4,29.85,WSW,251,5.0,24.0,51,0.00,,,0.00,Wunderground v.1.15,2013-02-16 17:20:00,
2013-02-16 11:30:00,30.3,13.4,29.85,NNW,328,5.0,24.0,49,0.00,,,0.00,Wunderground v.1.15,2013-02-16 17:30:00,
2013-02-16 11:40:00,30.5,12.2,29.85,West,278,7.0,7.0,46,0.00,,,0.00,Wunderground v.1.15,2013-02-16 17:40:00,
2013-02-16 11:50:00,30.3,12.0,29.85,WNW,300,6.0,24.0,46,0.00,,,0.00,Wunderground v.1.15,2013-02-16 17:50:00,
2013-02-16 12:00:00,30.8,11.9,29.84,NW,311,6.0,6.0,45,0.00,,,0.00,Wunderground v.1.15,2013-02-16 18:00:00,
2013-02-16 12:10:00,30.7,12.3,29.84,West,271,5.0,5.0,46,0.00,,,0.00,Wunderground v.1.15,2013-02-16 18:10:00,
2013-02-16 12:20:00,31.1,12.2,29.83,NNW,329,5.0,5.0,45,0.00,,,0.00,Wunderground v.1.15,2013-02-16 18:20:00,
2013-02-16 12:25:00,31.1,12.7,29.83,NW,317,6.0,9.0,46,0.00,,,0.00,Wunderground v.1.15,2013-02-16 18:25:00,
2013-02-16 12:35:00,31.4,9.8,29.83,WNW,302,6.0,6.0,40,0.00,,,0.00,Wunderground v.1.15,2013-02-16 18:35:00,
2013-02-16 12:45:00,31.1,10.6,29.83,WNW,298,8.0,24.0,42,0.00,,,0.00,Wunderground v.1.15,2013-02-16 18:45:00,
2013-02-16 12:55:00,31.4,9.8,29.82,West,277,6.0,12.0,40,0.00,,,0.00,Wunderground v.1.15,2013-02-16 18:55:00,
2013-02-16 13:05:00,32.3,10.1,29.82,West,259,7.0,8.0,39,0.00,,,0.00,Wunderground v.1.15,2013-02-16 19:05:00,
2013-02-16 13:15:00,32.3,9.5,29.82,NE,36,9.0,24.0,38,0.00,,,0.00,Wunderground v.1.15,2013-02-16 19:15:00,
2013-02-16 13:20:00,32.9,11.2,29.82,North,8,7.0,7.0,40,0.00,,,0.00,Wunderground v.1.15,2013-02-16 19:20:00,
2013-02-16 13:30:00,32.3,8.9,29.82,West,270,9.0,24.0,37,0.00,,,0.00,Wunderground v.1.15,2013-02-16 19:30:00,
2013-02-16 13:40:00,32.4,9.0,29.82,NW,323,8.0,24.0,37,0.00,,,0.00,Wunderground v.1.15,2013-02-16 19:40:00,
2013-02-16 13:50:00,32.6,9.8,29.81,NW,311,7.0,7.0,38,0.00,,,0.00,Wunderground v.1.15,2013-02-16 19:50:00,
2013-02-16 14:00:00,33.0,9.5,29.81,WNW,295,6.0,24.0,37,0.00,,,0.00,Wunderground v.1.15,2013-02-16 20:00:00,
2013-02-16 14:10:00,33.1,7.7,29.81,WNW,285,9.0,9.0,34,0.00,,,0.00,Wunderground v.1.15,2013-02-16 20:10:00,
2013-02-16 14:15:00,32.7,8.0,29.81,West,263,7.0,24.0,35,0.00,,,0.00,Wunderground v.1.15,2013-02-16 20:15:00,
2013-02-16 14:25:00,32.2,7.6,29.81,WNW,283,7.0,24.0,35,0.00,,,0.00,Wunderground v.1.15,2013-02-16 20:25:00,
2013-02-16 14:35:00,32.3,7.7,29.81,WNW,291,7.0,8.0,35,0.00,,,0.00,Wunderground v.1.15,2013-02-16 20:35:00,
2013-02-16 14:45:00,32.7,7.4,29.81,WSW,246,7.0,24.0,34,0.00,,,0.00,Wunderground v.1.15,2013-02-16 20:45:00,
2013-02-16 14:50:00,33.2,7.2,29.81,NW,316,8.0,24.0,33,0.00,,,0.00,Wunderground v.1.15,2013-02-16 20:50:00,
2013-02-16 15:00:00,33.2,7.8,29.81,WSW,243,7.0,7.0,34,0.00,,,0.00,Wunderground v.1.15,2013-02-16 21:00:00,
2013-02-16 15:10:00,33.3,8.6,29.81,NW,319,9.0,24.0,35,0.00,,,0.00,Wunderground v.1.15,2013-02-16 21:10:00,
2013-02-16 15:20:00,33.3,6.6,29.81,NW,321,8.0,8.0,32,0.00,,,0.00,Wunderground v.1.15,2013-02-16 21:20:00,
2013-02-16 15:25:00,33.2,6.5,29.81,NNW,328,7.0,24.0,32,0.00,,,0.00,Wunderground v.1.15,2013-02-16 21:25:00,
2013-02-16 15:35:00,33.1,5.0,29.82,WNW,283,7.0,24.0,30,0.00,,,0.00,Wunderground v.1.15,2013-02-16 21:35:00,
2013-02-16 15:45:00,33.2,5.8,29.81,NNW,330,7.0,24.0,31,0.00,,,0.00,Wunderground v.1.15,2013-02-16 21:45:00,
2013-02-16 15:55:00,33.3,8.6,29.81,NNW,329,8.0,24.0,35,0.00,,,0.00,Wunderground v.1.15,2013-02-16 21:55:00,
2013-02-16 16:05:00,33.4,8.0,29.82,WNW,293,7.0,24.0,34,0.00,,,0.00,Wunderground v.1.15,2013-02-16 22:05:00,
2013-02-16 16:10:00,33.4,8.0,29.82,West,271,6.0,6.0,34,0.00,,,0.00,Wunderground v.1.15,2013-02-16 22:10:00,
2013-02-16 16:20:00,33.3,5.9,29.82,WNW,283,5.0,24.0,31,0.00,,,0.00,Wunderground v.1.15,2013-02-16 22:20:00,
2013-02-16 16:30:00,32.9,5.5,29.82,NNW,330,6.0,6.0,31,0.00,,,0.00,Wunderground v.1.15,2013-02-16 22:30:00,
2013-02-16 16:40:00,33.1,6.4,29.81,WNW,288,4.0,4.0,32,0.00,,,0.00,Wunderground v.1.15,2013-02-16 22:40:00,
2013-02-16 16:50:00,32.9,6.2,29.81,WNW,303,4.0,4.0,32,0.00,,,0.00,Wunderground v.1.15,2013-02-16 22:50:00,
2013-02-16 17:00:00,32.9,6.2,29.81,NNW,342,3.0,24.0,32,0.00,,,0.00,Wunderground v.1.15,2013-02-16 23:00:00,
2013-02-16 17:10:00,32.6,5.9,29.81,NW,311,4.0,24.0,32,0.00,,,0.00,Wunderground v.1.15,2013-02-16 23:10:00,
2013-02-16 17:20:00,32.2,6.9,29.81,WNW,294,3.0,24.0,34,0.00,,,0.00,Wunderground v.1.15,2013-02-16 23:20:00,
2013-02-16 17:30:00,31.8,5.9,29.82,WNW,293,2.0,2.0,33,0.00,,,0.00,Wunderground v.1.15,2013-02-16 23:30:00,
2013-02-16 17:40:00,31.4,6.2,29.82,WSW,252,2.0,24.0,34,0.00,,,0.00,Wunderground v.1.15,2013-02-16 23:40:00,
2013-02-16 17:50:00,31.1,7.2,29.82,WNW,294,2.0,2.0,36,0.00,,,0.00,Wunderground v.1.15,2013-02-16 23:50:00,
2013-02-16 18:00:00,30.8,6.9,29.82,West,276,1.0,1.0,36,0.00,,,0.00,Wunderground v.1.15,2013-02-17 00:00:00,
2013-02-16 18:10:00,30.5,7.9,29.82,WSW,252,0.0,24.0,38,0.00,,,0.00,Wunderground v.1.15,2013-02-17 00:10:00,
2013-02-16 18:20:00,30.2,8.2,29.82,West,263,1.0,1.0,39,0.00,,,0.00,Wunderground v.1.15,2013-02-17 00:20:00,
2013-02-16 18:30:00,29.8,8.4,29.82,SW,234,0.0,24.0,40,0.00,,,0.00,Wunderground v.1.15,2013-02-17 00:30:00,
2013-02-16 18:40:00,29.5,9.2,29.83,WSW,239,0.0,24.0,42,0.00,,,0.00,Wunderground v.1.15,2013-02-17 00:40:00,
2013-02-16 18:50:00,28.9,8.1,29.83,WSW,239,0.0,24.0,41,0.00,,,0.00,Wunderground v.1.15,2013-02-17 00:50:00,
2013-02-16 19:00:00,28.4,7.7,29.82,SW,228,0.0,24.0,41,0.00,,,0.00,Wunderground v.1.15,2013-02-17 01:00:00,
2013-02-16 19:10:00,28.0,8.4,29.83,SW,232,0.0,24.0,43,0.00,,,0.00,Wunderground v.1.15,2013-02-17 01:10:00,
2013-02-16 19:20:00,27.5,7.9,29.82,SW,226,0.0,24.0,43,0.00,,,0.00,Wunderground v.1.15,2013-02-17 01:20:00,
2013-02-16 19:30:00,27.5,7.9,29.83,SW,225,0.0,24.0,43,0.00,,,0.00,Wunderground v.1.15,2013-02-17 01:30:00,
2013-02-16 19:40:00,27.2,8.1,29.82,SW,221,0.0,24.0,44,0.00,,,0.00,Wunderground v.1.15,2013-02-17 01:40:00,
2013-02-16 19:50:00,26.8,9.2,29.82,SW,221,0.0,24.0,47,0.00,,,0.00,Wunderground v.1.15,2013-02-17 01:50:00,
2013-02-16 19:55:00,26.6,9.5,29.83,SW,221,0.0,24.0,48,0.00,,,0.00,Wunderground v.1.15,2013-02-17 01:55:00,
2013-02-16 20:05:00,26.2,8.2,29.82,SW,221,0.0,24.0,46,0.00,,,0.00,Wunderground v.1.15,2013-02-17 02:05:00,
2013-02-16 20:15:00,25.7,10.0,29.83,SW,221,0.0,24.0,51,0.00,,,0.00,Wunderground v.1.15,2013-02-17 02:15:00,
2013-02-16 20:25:00,25.3,11.8,29.83,SSW,211,0.0,24.0,56,0.00,,,0.00,Wunderground v.1.15,2013-02-17 02:25:00,
2013-02-16 20:30:00,25.0,13.4,29.83,SW,215,0.0,24.0,61,0.00,,,0.00,Wunderground v.1.15,2013-02-17 02:30:00,
2013-02-16 20:40:00,24.6,13.1,29.83,SW,215,0.0,24.0,61,0.00,,,0.00,Wunderground v.1.15,2013-02-17 02:40:00,
2013-02-16 20:50:00,24.3,13.9,29.83,SW,214,0.0,24.0,64,0.00,,,0.00,Wunderground v.1.15,2013-02-17 02:50:00,
2013-02-16 21:00:00,24.2,14.5,29.83,SW,229,0.0,24.0,66,0.00,,,0.00,Wunderground v.1.15,2013-02-17 03:00:00,
2013-02-16 21:10:00,23.6,12.1,29.83,SW,218,0.0,24.0,61,0.00,,,0.00,Wunderground v.1.15,2013-02-17 03:10:00,
2013-02-16 21:20:00,23.2,13.2,29.83,SW,219,0.0,24.0,65,0.00,,,0.00,Wunderground v.1.15,2013-02-17 03:20:00,
2013-02-16 21:30:00,22.8,13.8,29.84,SW,219,0.0,24.0,68,0.00,,,0.00,Wunderground v.1.15,2013-02-17 03:30:00,
2013-02-16 21:40:00,22.7,13.7,29.83,SW,219,0.0,24.0,68,0.00,,,0.00,Wunderground v.1.15,2013-02-17 03:40:00,
2013-02-16 21:50:00,22.5,13.2,29.83,SW,214,0.0,24.0,67,0.00,,,0.00,Wunderground v.1.15,2013-02-17 03:50:00,
2013-02-16 21:55:00,22.7,13.0,29.83,SSW,205,0.0,24.0,66,0.00,,,0.00,Wunderground v.1.15,2013-02-17 03:55:00,
2013-02-16 22:05:00,22.7,14.4,29.83,SSW,203,0.0,24.0,70,0.00,,,0.00,Wunderground v.1.15,2013-02-17 04:05:00,
2013-02-16 22:15:00,22.2,14.5,29.83,SSW,203,0.0,24.0,72,0.00,,,0.00,Wunderground v.1.15,2013-02-17 04:15:00,
2013-02-16 22:20:00,21.9,13.9,29.84,SSW,211,0.0,24.0,71,0.00,,,0.00,Wunderground v.1.15,2013-02-17 04:20:00,
2013-02-16 22:30:00,21.9,13.9,29.83,SSW,212,0.0,24.0,71,0.00,,,0.00,Wunderground v.1.15,2013-02-17 04:30:00,
2013-02-16 22:40:00,21.7,12.8,29.83,SSW,212,0.0,24.0,68,0.00,,,0.00,Wunderground v.1.15,2013-02-17 04:40:00,
2013-02-16 22:50:00,21.9,14.3,29.83,South,169,0.0,24.0,72,0.00,,,0.00,Wunderground v.1.15,2013-02-17 04:50:00,
2013-02-16 23:00:00,21.8,13.2,29.83,SSW,207,0.0,24.0,69,0.00,,,0.00,Wunderground v.1.15,2013-02-17 05:00:00,
2013-02-16 23:05:00,21.9,13.6,29.83,SSW,204,0.0,24.0,70,0.00,,,0.00,Wunderground v.1.15,2013-02-17 05:05:00,
2013-02-16 23:10:00,21.8,13.5,29.83,South,178,0.0,24.0,70,0.00,,,0.00,Wunderground v.1.15,2013-02-17 05:10:00,
2013-02-16 23:20:00,21.9,12.3,29.83,SW,224,0.0,24.0,66,0.00,,,0.00,Wunderground v.1.15,2013-02-17 05:20:00,
2013-02-16 23:30:00,22.4,13.4,29.83,SSW,208,0.0,24.0,68,0.00,,,0.00,Wunderground v.1.15,2013-02-17 05:30:00,
2013-02-16 23:35:00,22.3,13.3,29.83,SSW,204,0.0,24.0,68,0.00,,,0.00,Wunderground v.1.15,2013-02-17 05:35:00,
2013-02-16 23:40:00,22.2,13.6,29.83,SSW,204,0.0,24.0,69,0.00,,,0.00,Wunderground v.1.15,2013-02-17 05:40:00,
2013-02-16 23:50:00,22.1,12.5,29.83,SSW,205,0.0,24.0,66,0.00,,,0.00,Wunderground v.1.15,2013-02-17 05:50:00,
2013-02-16 23:55:00,22.7,11.6,29.83,SSW,194,1.0,24.0,62,0.00,,,0.00,Wunderground v.1.15,2013-02-17 05:55:00,